TimeEST,TemperatureF,Dew PointF,Humidity,Sea Level PressureIn,VisibilityMPH,Wind Direction,Wind SpeedMPH,Gust SpeedMPH,PrecipitationIn,Events,Conditions,WindDirDegrees,DateUTC
12:55 AM,41.9,34.2,74,30.35,9.0,SSW,5.8,-,N/A,,Clear,200,2012-12-01 05:55:00
1:18 AM,41.0,35.6,81,30.36,9.0,SW,3.5,-,N/A,,Clear,230,2012-12-01 06:18:00
1:45 AM,39.2,35.6,87,30.36,9.0,Calm,Calm,-,N/A,,Clear,0,2012-12-01 06:45:00
1:55 AM,39.4,35.6,86,30.36,10.0,South,3.5,-,N/A,,Clear,190,2012-12-01 06:55:00
2:08 AM,39.2,35.6,87,30.36,8.0,South,3.5,-,N/A,,Clear,190,2012-12-01 07:08:00
2:55 AM,37.2,34.9,91,30.36,7.0,South,3.5,-,N/A,,Clear,180,2012-12-01 07:55:00
3:12 AM,37.4,35.6,93,30.36,7.0,Calm,Calm,-,N/A,,Clear,0,2012-12-01 08:12:00
3:34 AM,35.6,33.8,93,30.36,6.0,SSW,3.5,-,N/A,,Clear,210,2012-12-01 08:34:00
3:46 AM,37.4,35.6,93,30.36,6.0,SSW,3.5,-,N/A,,Clear,210,2012-12-01 08:46:00
3:55 AM,36.9,35.1,93,30.35,6.0,SSW,3.5,-,N/A,,Clear,210,2012-12-01 08:55:00
4:22 AM,35.6,33.8,93,30.36,5.0,SW,3.5,-,N/A,,Clear,230,2012-12-01 09:22:00
4:25 AM,37.4,35.6,93,30.35,5.0,SW,3.5,-,N/A,,Clear,230,2012-12-01 09:25:00
4:31 AM,37.4,35.6,93,30.36,5.0,SW,3.5,-,N/A,,Clear,220,2012-12-01 09:31:00
4:55 AM,36.3,34.9,95,30.36,6.0,Calm,Calm,-,N/A,,Clear,0,2012-12-01 09:55:00
5:20 AM,35.6,33.8,93,30.36,6.0,Calm,Calm,-,N/A,,Clear,0,2012-12-01 10:20:00
5:38 AM,33.8,33.8,100,30.36,4.0,Calm,Calm,-,N/A,,Clear,0,2012-12-01 10:38:00
5:46 AM,33.8,33.8,100,30.37,4.0,Calm,Calm,-,N/A,,Clear,0,2012-12-01 10:46:00
5:55 AM,35.2,34.2,96,30.37,4.0,Calm,Calm,-,N/A,,Clear,0,2012-12-01 10:55:00
6:19 AM,35.6,33.8,93,30.37,4.0,Calm,Calm,-,N/A,,Clear,0,2012-12-01 11:19:00
6:55 AM,35.2,34.3,97,30.39,3.0,SSW,3.5,-,N/A,,Mostly Cloudy,210,2012-12-01 11:55:00
6:57 AM,35.6,33.8,93,30.39,2.0,Calm,Calm,-,N/A,,Mostly Cloudy,0,2012-12-01 11:57:00
7:01 AM,33.8,33.8,100,30.39,2.5,Calm,Calm,-,N/A,,Overcast,0,2012-12-01 12:01:00
7:04 AM,33.8,33.8,100,30.40,3.0,Calm,Calm,-,N/A,,Overcast,0,2012-12-01 12:04:00
7:55 AM,38.8,37.9,97,30.41,5.0,Calm,Calm,-,N/A,,Overcast,0,2012-12-01 12:55:00
8:55 AM,44.8,38.8,80,30.43,6.0,Calm,Calm,-,N/A,,Haze,0,2012-12-01 13:55:00
9:55 AM,50.7,39.2,65,30.43,8.0,Calm,Calm,-,N/A,,Clear,0,2012-12-01 14:55:00
10:55 AM,55.9,35.1,45,30.42,10.0,Calm,Calm,-,N/A,,Clear,0,2012-12-01 15:55:00
11:55 AM,58.5,32.9,38,30.38,9.0,ESE,5.8,-,N/A,,Scattered Clouds,110,2012-12-01 16:55:00
12:55 PM,59.7,24.1,26,30.38,10.0,ESE,5.8,-,N/A,,Clear,110,2012-12-01 17:55:00
1:55 PM,59.2,27.7,30,30.37,8.0,ENE,9.2,-,N/A,,Clear,60,2012-12-01 18:55:00
2:55 PM,57.7,22.5,26,30.37,10.0,ENE,8.1,-,N/A,,Clear,70,2012-12-01 19:55:00
3:55 PM,55.2,24.6,31,30.37,10.0,ESE,5.8,-,N/A,,Clear,110,2012-12-01 20:55:00
4:55 PM,51.3,27.3,40,30.37,10.0,East,4.6,-,N/A,,Clear,100,2012-12-01 21:55:00
5:55 PM,48.7,31.8,52,30.38,10.0,ESE,4.6,-,N/A,,Clear,120,2012-12-01 22:55:00
6:55 PM,43.0,35.2,74,30.40,10.0,East,4.6,-,N/A,,Clear,80,2012-12-01 23:55:00
7:12 PM,42.8,35.6,76,30.40,9.0,ENE,3.5,-,N/A,,Clear,70,2012-12-02 00:12:00
7:55 PM,42.3,36.5,80,30.41,9.0,Calm,Calm,-,N/A,,Clear,0,2012-12-02 00:55:00
8:02 PM,42.8,37.4,81,30.41,5.0,Calm,Calm,-,N/A,,Haze,0,2012-12-02 01:02:00
8:21 PM,42.8,39.2,87,30.41,5.0,SE,3.5,-,N/A,,Haze,130,2012-12-02 01:21:00
8:55 PM,42.1,38.5,87,30.41,8.0,ESE,3.5,-,N/A,,Clear,110,2012-12-02 01:55:00
9:41 PM,41.0,37.4,87,30.41,7.0,Calm,Calm,-,N/A,,Clear,0,2012-12-02 02:41:00
9:55 PM,40.5,38.1,91,30.41,6.0,Calm,Calm,-,N/A,,Clear,0,2012-12-02 02:55:00
10:09 PM,39.2,37.4,93,30.41,5.0,Calm,Calm,-,N/A,,Clear,0,2012-12-02 03:09:00
10:20 PM,39.2,37.4,93,30.41,1.0,Calm,Calm,-,N/A,,Clear,0,2012-12-02 03:20:00
10:21 PM,39.2,37.4,93,30.41,1.0,Calm,Calm,-,N/A,,Clear,0,2012-12-02 03:21:00
10:30 PM,39.2,37.4,93,30.41,3.0,Calm,Calm,-,N/A,,Clear,0,2012-12-02 03:30:00
10:55 PM,39.2,37.9,95,30.41,4.0,Calm,Calm,-,N/A,,Clear,0,2012-12-02 03:55:00
10:58 PM,39.2,37.4,93,30.41,1.8,Calm,Calm,-,N/A,,Clear,0,2012-12-02 03:58:00
11:01 PM,39.2,37.4,93,30.41,1.8,Calm,Calm,-,N/A,,Clear,0,2012-12-02 04:01:00
11:07 PM,39.2,37.4,93,30.41,3.0,Calm,Calm,-,N/A,,Clear,0,2012-12-02 04:07:00
11:20 PM,39.2,37.4,93,30.41,2.5,Calm,Calm,-,N/A,,Clear,0,2012-12-02 04:20:00
11:24 PM,39.2,37.4,93,30.41,2.0,Calm,Calm,-,N/A,,Clear,0,2012-12-02 04:24:00
11:30 PM,37.4,37.4,100,30.41,1.8,Calm,Calm,-,N/A,,Clear,0,2012-12-02 04:30:00
11:35 PM,37.4,37.4,100,30.41,1.2,Calm,Calm,-,N/A,,Clear,0,2012-12-02 04:35:00
11:39 PM,37.4,37.4,100,30.41,1.0,Calm,Calm,-,N/A,,Clear,0,2012-12-02 04:39:00
11:46 PM,39.2,37.4,93,30.41,1.2,Calm,Calm,-,N/A,,Clear,0,2012-12-02 04:46:00
11:55 PM,39.0,37.9,96,30.41,2.0,Calm,Calm,-,N/A,,Clear,0,2012-12-02 04:55:00